Location: ??
(35.5090°N, 139.6783°E)
Time: 20:38:54
(UTC+00:00)

NOAA 6 - Pass Details

Date: 08 November 2025
Orbit: 766 x 782 km, 98.6° (Epoch: 08 December)

Event Time Altitude Azimuth Distance (km) Brightness Sun altitude
Rises 09:36:49 0° 169° (SSE) 3,252 7.2 -24.0°
Reaches altitude 10° 09:39:07 10° 170° (S) 2,328 6.4 -24.5°
Maximum altitude 09:44:16 79° 257° (WSW) 799 4.0 -25.5°
Drops below altitude 10° 09:49:26 10° 344° (NNW) 2,338 6.6 -26.6°
Sets 09:51:46 0° 346° (NNW) 3,268 7.4 -27.1°
